Acapulco, Mexico

12:16 PM CST on February 12, 2016 (GMT -0600)
Gen Juan N Alvarez International

Weather History for MMAA - August, 2013

Change the Weather History Date:

Wednesday, August 21, 2013

  Actual Average Record
Temperature  
Mean Temperature 85 °F -  
Max Temperature 93 °F 90 °F 95 °F (2001)
Min Temperature 77 °F 75 °F 69 °F (2008)
Cooling Degree Days 20    
Growing Degree Days 35 (Base 50)    
Moisture  
Dew Point 76 °F    
Average Humidity 80    
Maximum Humidity 94    
Minimum Humidity 59    
Precipitation  
Precipitation 0.00 in 0.44 in - ()
Sea Level Pressure  
Sea Level Pressure 29.87 in    
Wind  
Wind Speed 2 mph ()    
Max Wind Speed 7 mph    
Max Gust Speed -    
Visibility 8.1 miles    
Events      
Averages and records for this station are not official NWS values.
T = Trace of Precipitation, MM = Missing Value Source: Averaged Metar Reports

Daily Weather History Graph

Daily Weather History Graph

Search for Another Location

Airport or City:

Trip Planner

Search our weather history database for the weather conditions in past years. The results will help you decide how hot, cold, wet, or windy it might be!

Date:

Astronomy

Aug. 21, 2013 Rise Set
Actual Time 7:23 AM CDT 7:59 PM CDT
Civil Twilight 7:01 AM CDT 8:22 PM CDT
Nautical Twilight 6:35 AM CDT 8:48 PM CDT
Astronomical Twilight 6:09 AM CDT 9:14 PM CDT
Moon 8:29 PM CDT (8/21) 7:51 AM CDT (8/21)
Length of Visible Light 13h 20m
Length of Day
12h 36m
Waxing Gibbous, 99% of the Moon is Illuminated
Aug 21
Waxing Gibbous
Aug 28
Last Quarter
Sep 5
New
Sep 12
First Quarter
Sep 19
Full

Hourly Weather History & Observations

Time (CDT) Temp. Heat Index Dew Point Humidity Pressure Visibility Wind Dir Wind Speed Gust Speed Precip Events Conditions
12:42 AM 78.8 °F - 75.2 °F 89% 29.85 in 8.0 mi Calm Calm - N/A   Overcast
1:00 AM 78 °F - 76 °F 94% 29.90 in 4 mi NNE 2.2 mph - -   Overcast
1:43 AM 78.8 °F - 75.2 °F 89% 29.88 in 8.0 mi North 4.6 mph - N/A   Overcast
2:42 AM 78.8 °F - 75.2 °F 89% 29.86 in 8.0 mi Calm Calm - N/A   Overcast
3:45 AM 78.8 °F - 75.2 °F 89% 29.87 in 8.0 mi Calm Calm - N/A   Overcast
4:00 AM 78 °F - 75 °F 89% 29.86 in 4 mi NW 2.2 mph - -  
4:43 AM 78.8 °F - 75.2 °F 89% 29.85 in 8.0 mi NNE 4.6 mph - N/A   Overcast
5:43 AM 78.8 °F - 75.2 °F 89% 29.85 in 8.0 mi NNE 4.6 mph - N/A   Overcast
6:46 AM 78.8 °F - 73.4 °F 83% 29.83 in 8.0 mi Calm Calm - N/A   Overcast
7:00 AM 78 °F - 75 °F 89% 29.86 in 4 mi North 2.2 mph - -  
7:45 AM 77.0 °F - 73.4 °F 89% 29.87 in 8.0 mi NW 4.6 mph - N/A   Mostly Cloudy
8:46 AM 80.6 °F 86.2 °F 75.2 °F 84% 29.88 in 8.0 mi North 6.9 mph - N/A   Mostly Cloudy
9:45 AM 82.4 °F 89.5 °F 75.2 °F 79% 29.92 in 8.0 mi NNE 3.5 mph - N/A   Mostly Cloudy
9:50 AM 83 °F - 76 °F 73% 29.92 in 12 mi North 2.2 mph - -   Scattered Clouds
10:45 AM 84.2 °F 92.3 °F 75.2 °F 74% 29.91 in 8.0 mi North 5.8 mph - N/A   Overcast
11:45 AM 87.8 °F 97.6 °F 75.2 °F 66% 29.90 in 8.0 mi Calm Calm - N/A   Overcast
12:45 PM 87.8 °F 97.6 °F 75.2 °F 66% 29.91 in 8.0 mi Calm Calm - N/A   Overcast
12:50 PM 90 °F - 77 °F 59% 29.91 in 12 mi East 2.2 mph - -   Scattered Clouds
1:48 PM 87.8 °F 95.6 °F 73.4 °F 62% 29.90 in 8.0 mi SSE 3.5 mph - N/A   Overcast
2:46 PM 87.8 °F 97.6 °F 75.2 °F 66% 29.87 in 8.0 mi SSW 4.6 mph - N/A   Mostly Cloudy
3:45 PM 86.0 °F 96.9 °F 77.0 °F 74% 29.85 in 8.0 mi WSW 6.9 mph - N/A   Mostly Cloudy
3:50 PM 89 °F - 78 °F 63% 29.86 in 12 mi WSW 6.7 mph - -   Scattered Clouds
4:45 PM 84.2 °F 96.1 °F 78.8 °F 84% 29.83 in 8.0 mi WSW 6.9 mph - N/A   Overcast
5:43 PM 86.0 °F 99.3 °F 78.8 °F 79% 29.82 in 8.0 mi WSW 5.8 mph - N/A   Mostly Cloudy
6:45 PM 84.2 °F 94.1 °F 77.0 °F 79% 29.82 in 8.0 mi WSW 4.6 mph - N/A   Mostly Cloudy
6:50 PM 86 °F - 77 °F 69% 29.83 in 12 mi WSW 4.5 mph - -   Overcast
7:43 PM 82.4 °F 90.9 °F 77.0 °F 84% 29.83 in 8.0 mi Calm Calm - N/A   Mostly Cloudy
8:43 PM 82.4 °F 90.9 °F 77.0 °F 84% 29.84 in 8.0 mi Calm Calm - N/A   Mostly Cloudy
9:45 PM 82 °F - 78 °F 84% 29.88 in 6 mi SW 2.2 mph - -   Scattered Clouds
9:45 PM 82.4 °F 90.9 °F 77.0 °F 84% 29.87 in 8.0 mi Calm Calm - N/A   Mostly Cloudy
10:46 PM 80.6 °F 87.1 °F 77.0 °F 89% 29.89 in 8.0 mi Calm Calm - N/A   Mostly Cloudy
11:45 PM 80.6 °F 87.1 °F 77.0 °F 89% 29.91 in 8.0 mi Calm Calm - N/A   Overcast